EXS56B LEMH-EGBB

Flight info

Callsign EXS56B
Flight time 2h 21m
Altitude 36000
Route MEROS N853 LUMAS DCT SOFFY DCT MRM DCT MTL DCT ETREK DCT MADOT DCT MOPEM DCT CACHI DCT AVLON DCT OKRIX DCT BRY DCT CLM DCT KOPOR DCT ABNUR DCT DIMAL DCT ALESO T420 HEMEL
Aircraft B738/M-SDE2E3FGHIRWXY/LB1

Departure

Time 2026-04-16 12:59
Airport Menorca Airport (LEMH)

Arrival

Time 2026-04-16 15:20
Airport Birmingham Airport (EGBB)
Time Latitude Longitude Altitude Speed Heading
2026-04-16 12:26 39.86425 4.22391 285 ft 0 kts 99°
2026-04-16 12:50 39.86426 4.22384 285 ft 4 kts 99°
2026-04-16 12:51 39.86430 4.22351 286 ft 3 kts 99°
2026-04-16 12:51 39.86437 4.22322 290 ft 4 kts 143°
2026-04-16 12:51 39.86460 4.22315 291 ft 4 kts 188°
2026-04-16 12:51 39.86471 4.22318 287 ft 2 kts 189°
2026-04-16 12:55 39.86456 4.22314 287 ft 6 kts 189°
2026-04-16 12:55 39.86382 4.22299 287 ft 15 kts 188°
2026-04-16 12:55 39.86265 4.22275 287 ft 19 kts 190°
2026-04-16 12:55 39.86182 4.22225 288 ft 13 kts 264°
2026-04-16 12:56 39.86188 4.22108 292 ft 13 kts 248°
2026-04-16 12:56 39.86100 4.22070 294 ft 16 kts 188°
2026-04-16 12:56 39.85959 4.22042 295 ft 26 kts 189°
2026-04-16 12:56 39.85767 4.22002 293 ft 29 kts 189°
2026-04-16 12:57 39.85573 4.21965 286 ft 27 kts 189°
2026-04-16 12:57 39.85395 4.21926 282 ft 25 kts 189°
2026-04-16 12:57 39.85229 4.21893 280 ft 23 kts 188°
2026-04-16 12:57 39.85127 4.21817 282 ft 16 kts 271°
2026-04-16 12:58 39.85148 4.21680 288 ft 15 kts 299°
2026-04-16 12:58 39.85243 4.21657 284 ft 15 kts
2026-04-16 12:58 39.85426 4.21693 286 ft 53 kts
2026-04-16 12:58 39.86018 4.21814 304 ft 117 kts
2026-04-16 12:59 39.86989 4.22010 458 ft 156 kts
2026-04-16 12:59 39.88110 4.22243 1100 ft 168 kts
2026-04-16 12:59 39.89295 4.22491 1880 ft 182 kts
2026-04-16 13:00 39.92071 4.23088 2751 ft 216 kts
2026-04-16 13:00 39.93603 4.23420 3228 ft 235 kts
2026-04-16 13:00 39.95240 4.23772 3927 ft 245 kts
2026-04-16 13:00 39.96928 4.24134 4833 ft 249 kts
2026-04-16 13:01 39.98668 4.24498 5620 ft 257 kts
2026-04-16 13:01 40.00451 4.24871 6432 ft 263 kts
2026-04-16 13:01 40.02270 4.25271 7235 ft 266 kts
2026-04-16 13:01 40.04105 4.25704 8030 ft 270 kts
2026-04-16 13:02 40.05936 4.26142 8820 ft 273 kts
2026-04-16 13:02 40.07842 4.26600 9620 ft 277 kts
2026-04-16 13:02 40.09724 4.27051 10368 ft 281 kts 10°
2026-04-16 13:02 40.11703 4.27524 10705 ft 301 kts 10°
2026-04-16 13:03 40.13848 4.28036 10908 ft 324 kts 10°
2026-04-16 13:03 40.16107 4.28576 11410 ft 334 kts 10°
2026-04-16 13:03 40.18411 4.29126 12127 ft 337 kts 10°
2026-04-16 13:03 40.20717 4.29677 12912 ft 339 kts 10°
2026-04-16 13:04 40.23051 4.30235 13664 ft 342 kts 10°
2026-04-16 13:04 40.25367 4.30788 14328 ft 345 kts 10°
2026-04-16 13:04 40.27741 4.31356 14974 ft 349 kts
2026-04-16 13:04 40.30133 4.31929 15629 ft 352 kts
2026-04-16 13:05 40.32555 4.32508 16264 ft 355 kts
2026-04-16 13:05 40.34997 4.33094 16894 ft 359 kts
2026-04-16 13:05 40.37462 4.33685 17525 ft 362 kts
2026-04-16 13:05 40.39951 4.34282 18146 ft 366 kts
2026-04-16 13:06 40.42472 4.34888 18706 ft 370 kts
2026-04-16 13:06 40.45010 4.35498 19262 ft 372 kts
2026-04-16 13:06 40.47573 4.36115 19826 ft 375 kts
2026-04-16 13:06 40.50106 4.36724 20356 ft 378 kts
2026-04-16 13:07 40.52706 4.37344 20887 ft 381 kts
2026-04-16 13:07 40.55319 4.37962 21409 ft 384 kts
2026-04-16 13:07 40.57954 4.38585 21927 ft 386 kts
2026-04-16 13:07 40.60610 4.39214 22438 ft 389 kts
2026-04-16 13:08 40.63285 4.39848 22944 ft 392 kts
2026-04-16 13:08 40.65985 4.40489 23444 ft 395 kts 10°
2026-04-16 13:08 40.68696 4.41133 23899 ft 398 kts 10°
2026-04-16 13:08 40.71428 4.41783 24310 ft 400 kts 10°
2026-04-16 13:09 40.74139 4.42429 24721 ft 402 kts
2026-04-16 13:09 40.76900 4.43087 25134 ft 404 kts
2026-04-16 13:09 40.79675 4.43750 25529 ft 406 kts
2026-04-16 13:09 40.82459 4.44415 25918 ft 409 kts
2026-04-16 13:10 40.85270 4.45087 26283 ft 411 kts
2026-04-16 13:10 40.88099 4.45763 26664 ft 414 kts
2026-04-16 13:10 40.90933 4.46444 27045 ft 415 kts
2026-04-16 13:10 40.93787 4.47139 27418 ft 417 kts
2026-04-16 13:11 40.96650 4.47840 27779 ft 420 kts
2026-04-16 13:11 40.99491 4.48537 28124 ft 422 kts
2026-04-16 13:11 41.02382 4.49245 28469 ft 424 kts
2026-04-16 13:11 41.05286 4.49957 28816 ft 426 kts
2026-04-16 13:12 41.08202 4.50671 29201 ft 426 kts
2026-04-16 13:12 41.11119 4.51383 29550 ft 428 kts
2026-04-16 13:12 41.14059 4.52100 29858 ft 430 kts
2026-04-16 13:12 41.17000 4.52817 30165 ft 432 kts
2026-04-16 13:13 41.19954 4.53539 30529 ft 431 kts
2026-04-16 13:13 41.22892 4.54258 30990 ft 427 kts
2026-04-16 13:13 41.25759 4.54960 31450 ft 423 kts
2026-04-16 13:13 41.28642 4.55667 31920 ft 419 kts
2026-04-16 13:14 41.31500 4.56369 32346 ft 417 kts
2026-04-16 13:14 41.34352 4.57069 32696 ft 416 kts 10°
2026-04-16 13:14 41.37189 4.57767 32966 ft 417 kts
2026-04-16 13:15 41.42950 4.59184 33365 ft 421 kts
2026-04-16 13:15 41.45783 4.59883 33841 ft 416 kts
2026-04-16 13:15 41.48611 4.60581 34341 ft 410 kts 10°
2026-04-16 13:15 41.51402 4.61270 34738 ft 407 kts 10°
2026-04-16 13:16 41.54188 4.61959 34878 ft 410 kts 10°
2026-04-16 13:16 41.57003 4.62655 34998 ft 412 kts 10°
2026-04-16 13:16 41.59824 4.63353 35221 ft 412 kts 10°
2026-04-16 13:16 41.62649 4.64054 35455 ft 412 kts 10°
2026-04-16 13:17 41.65463 4.64752 35654 ft 412 kts 10°
2026-04-16 13:17 41.68286 4.65453 35866 ft 413 kts 10°
2026-04-16 13:17 41.71064 4.66143 36136 ft 411 kts 10°
2026-04-16 13:18 41.76672 4.67859 36178 ft 415 kts 15°
2026-04-16 13:18 41.82184 4.70062 36173 ft 411 kts 16°
2026-04-16 13:19 41.87646 4.72280 36168 ft 409 kts 15°
2026-04-16 13:19 41.93050 4.74437 36163 ft 407 kts 15°
2026-04-16 13:20 41.98474 4.76581 36165 ft 406 kts 15°
2026-04-16 13:20 42.03887 4.78716 36164 ft 406 kts 15°
2026-04-16 13:21 42.09305 4.80856 36161 ft 406 kts 15°
2026-04-16 13:21 42.14703 4.82993 36161 ft 408 kts 15°
2026-04-16 13:22 42.20156 4.85156 36162 ft 410 kts 15°
2026-04-16 13:22 42.25640 4.87335 36161 ft 411 kts 15°
2026-04-16 13:23 42.31139 4.89524 36156 ft 413 kts 15°
2026-04-16 13:23 42.36659 4.91726 36154 ft 414 kts 15°
2026-04-16 13:24 42.42158 4.93923 36155 ft 415 kts 15°
2026-04-16 13:24 42.47703 4.96142 36167 ft 416 kts 15°
2026-04-16 13:25 42.53249 4.98367 36149 ft 415 kts 15°
2026-04-16 13:25 42.58780 5.00590 36149 ft 414 kts 15°
2026-04-16 13:26 42.64262 5.02796 36145 ft 413 kts 15°
2026-04-16 13:26 42.69756 5.05012 36143 ft 411 kts 15°
2026-04-16 13:27 42.75230 5.07223 36141 ft 410 kts 15°
2026-04-16 13:27 42.80692 5.09434 36141 ft 409 kts 15°
2026-04-16 13:28 42.86135 5.11642 36142 ft 408 kts 15°
2026-04-16 13:28 42.91534 5.13835 36140 ft 408 kts 15°
2026-04-16 13:29 42.96975 5.16050 36143 ft 408 kts 15°
2026-04-16 13:29 43.02422 5.18270 36145 ft 409 kts 15°
2026-04-16 13:30 43.07885 5.20481 36139 ft 410 kts 15°
2026-04-16 13:30 43.13367 5.22696 36138 ft 412 kts 15°
2026-04-16 13:31 43.18832 5.24912 36138 ft 413 kts 15°
2026-04-16 13:31 43.24348 5.27154 36135 ft 414 kts 15°
2026-04-16 13:32 43.29885 5.29409 36130 ft 415 kts 15°
2026-04-16 13:32 43.35468 5.31414 36118 ft 414 kts
2026-04-16 13:33 43.41144 5.31055 36126 ft 413 kts 347°
2026-04-16 13:33 43.46622 5.28688 36129 ft 413 kts 342°
2026-04-16 13:34 43.52071 5.26126 36135 ft 414 kts 341°
2026-04-16 13:34 43.57522 5.23590 36126 ft 414 kts 342°
2026-04-16 13:35 43.62949 5.21093 36132 ft 414 kts 342°
2026-04-16 13:35 43.68413 5.18587 36130 ft 413 kts 342°
2026-04-16 13:36 43.73874 5.16080 36126 ft 413 kts 342°
2026-04-16 13:36 43.79320 5.13574 36121 ft 412 kts 342°
2026-04-16 13:37 43.84718 5.11086 36130 ft 411 kts 342°
2026-04-16 13:37 43.90149 5.08577 36125 ft 411 kts 342°
2026-04-16 13:38 43.95570 5.06068 36132 ft 411 kts 341°
2026-04-16 13:38 44.00984 5.03557 36131 ft 410 kts 341°
2026-04-16 13:39 44.06362 5.01058 36127 ft 410 kts 341°
2026-04-16 13:39 44.11779 4.98536 36128 ft 410 kts 341°
2026-04-16 13:40 44.17194 4.96011 36134 ft 410 kts 341°
2026-04-16 13:40 44.22611 4.93479 36128 ft 411 kts 341°
2026-04-16 13:41 44.27998 4.90957 36135 ft 411 kts 341°
2026-04-16 13:41 44.33426 4.88410 36146 ft 412 kts 341°
2026-04-16 13:42 44.38863 4.85854 36148 ft 412 kts 341°
2026-04-16 13:42 44.44298 4.83294 36155 ft 412 kts 341°
2026-04-16 13:43 44.49739 4.80726 36152 ft 412 kts 341°
2026-04-16 13:43 44.55145 4.78194 36162 ft 413 kts 342°
2026-04-16 13:44 44.60793 4.76685 36170 ft 413 kts 350°
2026-04-16 13:44 44.66481 4.75515 36173 ft 414 kts 350°
2026-04-16 13:45 44.72174 4.74306 36186 ft 414 kts 349°
2026-04-16 13:45 44.77826 4.73066 36188 ft 414 kts 349°
2026-04-16 13:46 44.83515 4.71801 36176 ft 414 kts 349°
2026-04-16 13:46 44.89198 4.70535 36186 ft 413 kts 349°
2026-04-16 13:47 44.94880 4.69266 36183 ft 414 kts 349°
2026-04-16 13:47 45.00533 4.68002 36201 ft 414 kts 349°
2026-04-16 13:48 45.06214 4.66729 36203 ft 414 kts 349°
2026-04-16 13:48 45.11900 4.65453 36213 ft 414 kts 349°
2026-04-16 13:49 45.17588 4.64174 36213 ft 414 kts 349°
2026-04-16 13:49 45.23275 4.62883 36211 ft 414 kts 349°
2026-04-16 13:50 45.28918 4.61589 36223 ft 413 kts 349°
2026-04-16 13:50 45.34603 4.60282 36222 ft 414 kts 349°
2026-04-16 13:51 45.40281 4.58976 36241 ft 414 kts 348°
2026-04-16 13:51 45.45974 4.57664 36238 ft 415 kts 348°
2026-04-16 13:52 45.51667 4.56350 36241 ft 415 kts 348°
2026-04-16 13:52 45.57346 4.55036 36239 ft 416 kts 348°
2026-04-16 13:53 45.63049 4.53714 36238 ft 416 kts 348°
2026-04-16 13:53 45.68764 4.52387 36251 ft 416 kts 348°
2026-04-16 13:54 45.74477 4.51057 36252 ft 416 kts 348°
2026-04-16 13:54 45.80161 4.49735 36250 ft 416 kts 348°
2026-04-16 13:55 45.85872 4.48404 36255 ft 416 kts 348°
2026-04-16 13:55 45.91589 4.47069 36257 ft 416 kts 348°
2026-04-16 13:56 45.97304 4.45730 36252 ft 416 kts 348°
2026-04-16 13:56 46.03015 4.44391 36241 ft 416 kts 348°
2026-04-16 13:57 46.08688 4.43057 36265 ft 415 kts 348°
2026-04-16 13:57 46.14391 4.41713 36253 ft 415 kts 348°
2026-04-16 13:58 46.22938 4.39694 36256 ft 415 kts 348°
2026-04-16 13:58 46.28586 4.38343 36276 ft 413 kts 346°
2026-04-16 13:59 46.34187 4.36521 36266 ft 412 kts 343°
2026-04-16 13:59 46.39747 4.34502 36259 ft 412 kts 343°
2026-04-16 14:00 46.44367 4.32840 36246 ft 412 kts 343°
2026-04-16 14:00 46.50846 4.30545 36254 ft 412 kts 343°
2026-04-16 14:01 46.56416 4.28584 36255 ft 412 kts 343°
2026-04-16 14:01 46.61994 4.26618 36246 ft 413 kts 343°
2026-04-16 14:02 46.66637 4.24978 36252 ft 413 kts 343°
2026-04-16 14:02 46.72215 4.23003 36255 ft 413 kts 343°
2026-04-16 14:03 46.78708 4.20699 36257 ft 413 kts 343°
2026-04-16 14:03 46.83354 4.19047 36255 ft 414 kts 343°
2026-04-16 14:04 46.88947 4.17055 36252 ft 414 kts 343°
2026-04-16 14:04 46.95450 4.14733 36262 ft 414 kts 343°
2026-04-16 14:05 47.00136 4.13055 36253 ft 414 kts 343°
2026-04-16 14:05 47.05733 4.11047 36250 ft 414 kts 342°
2026-04-16 14:06 47.11096 4.08294 36260 ft 410 kts 334°
2026-04-16 14:06 47.16365 4.05074 36260 ft 410 kts 334°
2026-04-16 14:07 47.21649 4.01867 36257 ft 411 kts 334°
2026-04-16 14:07 47.26951 3.98696 36256 ft 412 kts 334°
2026-04-16 14:08 47.32238 3.95545 36275 ft 413 kts 334°
2026-04-16 14:08 47.37561 3.92368 36267 ft 413 kts 334°
2026-04-16 14:09 47.42895 3.89176 36248 ft 413 kts 334°
2026-04-16 14:09 47.48219 3.85982 36259 ft 413 kts 334°
2026-04-16 14:10 47.53550 3.82777 36269 ft 413 kts 334°
2026-04-16 14:10 47.58836 3.79600 36254 ft 413 kts 334°
2026-04-16 14:11 47.64155 3.76412 36250 ft 412 kts 334°
2026-04-16 14:11 47.69462 3.73225 36253 ft 411 kts 334°
2026-04-16 14:12 47.74751 3.70040 36266 ft 410 kts 334°
2026-04-16 14:12 47.80048 3.66842 36240 ft 410 kts 334°
2026-04-16 14:13 47.85288 3.63671 36258 ft 409 kts 334°
2026-04-16 14:13 47.90560 3.60473 36254 ft 409 kts 334°
2026-04-16 14:14 47.95820 3.57277 36273 ft 408 kts 334°
2026-04-16 14:14 48.01068 3.54067 36258 ft 408 kts 333°
2026-04-16 14:15 48.06281 3.50857 36257 ft 408 kts 333°
2026-04-16 14:15 48.11525 3.47622 36261 ft 407 kts 333°
2026-04-16 14:16 48.16757 3.44388 36269 ft 407 kts 333°
2026-04-16 14:16 48.22005 3.41139 36256 ft 408 kts 333°
2026-04-16 14:17 48.27245 3.37886 36259 ft 408 kts 333°
2026-04-16 14:17 48.32465 3.34638 36270 ft 409 kts 333°
2026-04-16 14:18 48.37722 3.31362 36258 ft 410 kts 333°
2026-04-16 14:18 48.42991 3.28059 36266 ft 410 kts 332°
2026-04-16 14:19 48.48251 3.24707 36267 ft 411 kts 332°
2026-04-16 14:19 48.53478 3.21364 36256 ft 411 kts 332°
2026-04-16 14:20 48.58735 3.17998 36260 ft 410 kts 332°
2026-04-16 14:20 48.63990 3.14628 36263 ft 410 kts 332°
2026-04-16 14:21 48.69201 3.11279 36265 ft 410 kts 332°
2026-04-16 14:21 48.74475 3.07881 36257 ft 409 kts 332°
2026-04-16 14:22 48.79668 3.04529 36247 ft 408 kts 332°
2026-04-16 14:22 48.84873 3.01120 36254 ft 405 kts 328°
2026-04-16 14:23 48.89774 2.96987 36259 ft 402 kts 325°
2026-04-16 14:23 48.94588 2.92665 36260 ft 403 kts 324°
2026-04-16 14:24 48.99398 2.88379 36258 ft 403 kts 325°
2026-04-16 14:24 49.04255 2.84087 36258 ft 404 kts 325°
2026-04-16 14:25 49.09127 2.79790 36252 ft 405 kts 325°
2026-04-16 14:25 49.14007 2.75479 36247 ft 405 kts 325°
2026-04-16 14:26 49.18893 2.71153 36242 ft 406 kts 325°
2026-04-16 14:26 49.23740 2.66850 36250 ft 406 kts 325°
2026-04-16 14:27 49.28621 2.62507 36264 ft 406 kts 324°
2026-04-16 14:27 49.33504 2.58151 36244 ft 406 kts 324°
2026-04-16 14:28 49.38388 2.53785 36243 ft 406 kts 324°
2026-04-16 14:28 49.43266 2.49414 36244 ft 406 kts 324°
2026-04-16 14:29 49.48107 2.45066 36241 ft 406 kts 324°
2026-04-16 14:29 49.52988 2.40701 36241 ft 406 kts 325°
2026-04-16 14:30 49.57942 2.36515 36241 ft 407 kts 326°
2026-04-16 14:30 49.62912 2.32358 36243 ft 406 kts 326°
2026-04-16 14:31 49.67835 2.28208 36237 ft 405 kts 326°
2026-04-16 14:31 49.72776 2.24014 36250 ft 405 kts 325°
2026-04-16 14:32 49.77708 2.19813 36238 ft 405 kts 325°
2026-04-16 14:32 49.82642 2.15600 36230 ft 405 kts 325°
2026-04-16 14:33 49.87574 2.11379 36230 ft 405 kts 325°
2026-04-16 14:33 49.92475 2.07175 36235 ft 405 kts 325°
2026-04-16 14:34 49.97413 2.02929 36241 ft 406 kts 325°
2026-04-16 14:34 50.02350 1.98674 36230 ft 406 kts 325°
2026-04-16 14:35 50.07291 1.94406 36232 ft 406 kts 325°
2026-04-16 14:35 50.12193 1.90162 36232 ft 406 kts 324°
2026-04-16 14:36 50.17048 1.85730 36225 ft 401 kts 318°
2026-04-16 14:36 50.21112 1.79940 36241 ft 395 kts 310°
2026-04-16 14:37 50.25015 1.73918 36235 ft 395 kts 310°
2026-04-16 14:37 50.28938 1.67899 36235 ft 395 kts 310°
2026-04-16 14:38 50.32834 1.61936 36236 ft 395 kts 310°
2026-04-16 14:38 50.36755 1.55929 36238 ft 394 kts 310°
2026-04-16 14:39 50.40673 1.49909 36237 ft 394 kts 310°
2026-04-16 14:39 50.44586 1.43883 36244 ft 394 kts 310°
2026-04-16 14:40 50.48497 1.37847 36242 ft 394 kts 310°
2026-04-16 14:40 50.52262 1.31692 36227 ft 393 kts 307°
2026-04-16 14:41 50.55940 1.25336 36236 ft 393 kts 307°
2026-04-16 14:41 50.59692 1.19068 36229 ft 394 kts 309°
2026-04-16 14:42 50.63585 1.12967 36222 ft 395 kts 310°
2026-04-16 14:42 50.67455 1.06901 36232 ft 395 kts 309°
2026-04-16 14:43 50.71333 1.00760 36225 ft 395 kts 309°
2026-04-16 14:43 50.75198 0.94607 36217 ft 395 kts 309°
2026-04-16 14:44 50.79065 0.88432 36205 ft 395 kts 309°
2026-04-16 14:44 50.82925 0.82255 36212 ft 395 kts 309°
2026-04-16 14:45 50.86785 0.76069 36211 ft 395 kts 309°
2026-04-16 14:45 50.90632 0.69931 36163 ft 396 kts 309°
2026-04-16 14:46 50.94508 0.63739 36078 ft 396 kts 309°
2026-04-16 14:46 50.98373 0.57523 36001 ft 395 kts 308°
2026-04-16 14:47 51.02183 0.51302 35904 ft 385 kts 308°
2026-04-16 14:47 51.04037 0.48272 35582 ft 379 kts 308°
2026-04-16 14:47 51.05837 0.45328 35208 ft 375 kts 307°
2026-04-16 14:48 51.07649 0.42381 34864 ft 371 kts 308°
2026-04-16 14:48 51.09499 0.39528 34470 ft 370 kts 309°
2026-04-16 14:48 51.11362 0.36725 34116 ft 367 kts 309°
2026-04-16 14:48 51.13212 0.33948 33748 ft 365 kts 309°
2026-04-16 14:49 51.15047 0.31181 33337 ft 362 kts 309°
2026-04-16 14:49 51.16863 0.28427 32962 ft 359 kts 309°
2026-04-16 14:49 51.18658 0.25693 32641 ft 355 kts 309°
2026-04-16 14:49 51.20431 0.22983 32315 ft 352 kts 309°
2026-04-16 14:50 51.22192 0.20287 31983 ft 349 kts 309°
2026-04-16 14:50 51.23934 0.17615 31675 ft 346 kts 309°
2026-04-16 14:50 51.25635 0.15002 31368 ft 343 kts 309°
2026-04-16 14:50 51.27349 0.12366 31068 ft 341 kts 309°
2026-04-16 14:51 51.29051 0.09748 30763 ft 338 kts 309°
2026-04-16 14:51 51.30739 0.07150 30469 ft 336 kts 309°
2026-04-16 14:51 51.32423 0.04577 30171 ft 335 kts 311°
2026-04-16 14:51 51.34284 0.02302 29950 ft 340 kts 320°
2026-04-16 14:53 51.48200 -0.10838 27564 ft 324 kts 321°
2026-04-16 14:53 51.50109 -0.12661 27247 ft 325 kts 321°
2026-04-16 14:54 51.52075 -0.14545 26935 ft 335 kts 321°
2026-04-16 14:54 51.54099 -0.16489 26608 ft 343 kts 322°
2026-04-16 14:54 51.56147 -0.18448 26260 ft 342 kts 322°
2026-04-16 14:54 51.58185 -0.20395 25882 ft 340 kts 322°
2026-04-16 14:55 51.60212 -0.22335 25528 ft 338 kts 322°
2026-04-16 14:55 51.62229 -0.24269 25195 ft 336 kts 322°
2026-04-16 14:55 51.64229 -0.26190 24865 ft 334 kts 322°
2026-04-16 14:55 51.66223 -0.28109 24534 ft 333 kts 322°
2026-04-16 14:56 51.68208 -0.30011 24210 ft 331 kts 323°
2026-04-16 14:56 51.70185 -0.31901 23888 ft 330 kts 323°
2026-04-16 14:56 51.72157 -0.33788 23549 ft 329 kts 323°
2026-04-16 14:56 51.74093 -0.35645 23164 ft 328 kts 323°
2026-04-16 14:57 51.76046 -0.37517 22819 ft 326 kts 323°
2026-04-16 14:57 51.77988 -0.39381 22510 ft 323 kts 323°
2026-04-16 14:57 51.79914 -0.41233 22184 ft 321 kts 323°
2026-04-16 14:57 51.81818 -0.43074 21915 ft 319 kts 323°
2026-04-16 14:58 51.83712 -0.44923 21636 ft 318 kts 323°
2026-04-16 14:58 51.87524 -0.48659 21084 ft 324 kts 323°
2026-04-16 14:58 51.89463 -0.50558 20800 ft 326 kts 323°
2026-04-16 14:59 51.91375 -0.52431 20503 ft 325 kts 323°
2026-04-16 14:59 51.93303 -0.54320 20221 ft 324 kts 323°
2026-04-16 14:59 51.95227 -0.56206 19941 ft 323 kts 323°
2026-04-16 14:59 51.97151 -0.58086 19659 ft 322 kts 323°
2026-04-16 15:00 51.99074 -0.59965 19382 ft 322 kts 323°
2026-04-16 15:00 52.00990 -0.61839 19101 ft 322 kts 323°
2026-04-16 15:00 52.02906 -0.63715 18815 ft 321 kts 323°
2026-04-16 15:00 52.04819 -0.65591 18559 ft 322 kts 323°
2026-04-16 15:01 52.06737 -0.67474 18244 ft 322 kts 324°
2026-04-16 15:01 52.08649 -0.69353 17926 ft 320 kts 324°
2026-04-16 15:01 52.10524 -0.71195 17632 ft 317 kts 323°
2026-04-16 15:01 52.12401 -0.73042 17347 ft 314 kts 323°
2026-04-16 15:02 52.14255 -0.74869 17071 ft 310 kts 323°
2026-04-16 15:02 52.16091 -0.76681 16801 ft 307 kts 323°
2026-04-16 15:02 52.17910 -0.78478 16538 ft 305 kts 323°
2026-04-16 15:02 52.19714 -0.80261 16273 ft 302 kts 323°
2026-04-16 15:03 52.21509 -0.82037 16010 ft 301 kts 323°
2026-04-16 15:03 52.23284 -0.83832 15737 ft 297 kts 318°
2026-04-16 15:03 52.24638 -0.86247 15481 ft 285 kts 295°
2026-04-16 15:03 52.25345 -0.89166 15271 ft 279 kts 281°
2026-04-16 15:04 52.25784 -0.92252 15027 ft 280 kts 279°
2026-04-16 15:04 52.26192 -0.95365 14785 ft 281 kts 279°
2026-04-16 15:04 52.26600 -0.98496 14537 ft 283 kts 279°
2026-04-16 15:04 52.27014 -1.01638 14294 ft 284 kts 278°
2026-04-16 15:05 52.27436 -1.04798 14043 ft 285 kts 278°
2026-04-16 15:05 52.27862 -1.07966 13781 ft 287 kts 278°
2026-04-16 15:05 52.28291 -1.11139 13502 ft 285 kts 279°
2026-04-16 15:05 52.28717 -1.14282 13234 ft 281 kts 279°
2026-04-16 15:06 52.29136 -1.17375 12982 ft 277 kts 279°
2026-04-16 15:06 52.29546 -1.20396 12739 ft 274 kts 279°
2026-04-16 15:06 52.29956 -1.23429 12507 ft 273 kts 279°
2026-04-16 15:06 52.30364 -1.26450 12270 ft 272 kts 279°
2026-04-16 15:07 52.30768 -1.29452 12040 ft 270 kts 279°
2026-04-16 15:07 52.31170 -1.32451 11802 ft 270 kts 279°
2026-04-16 15:07 52.31572 -1.35446 11571 ft 269 kts 279°
2026-04-16 15:07 52.31971 -1.38437 11334 ft 269 kts 279°
2026-04-16 15:08 52.32369 -1.41421 11097 ft 269 kts 279°
2026-04-16 15:08 52.32767 -1.44406 10861 ft 269 kts 279°
2026-04-16 15:08 52.33159 -1.47354 10630 ft 269 kts 279°
2026-04-16 15:08 52.33555 -1.50345 10404 ft 269 kts 278°
2026-04-16 15:09 52.33950 -1.53329 10163 ft 267 kts 279°
2026-04-16 15:09 52.34342 -1.56281 9920 ft 265 kts 278°
2026-04-16 15:09 52.34728 -1.59208 9675 ft 263 kts 278°
2026-04-16 15:09 52.35111 -1.62122 9429 ft 261 kts 278°
2026-04-16 15:10 52.35491 -1.65015 9182 ft 258 kts 278°
2026-04-16 15:10 52.35874 -1.67869 8976 ft 256 kts 279°
2026-04-16 15:10 52.36272 -1.70698 8739 ft 254 kts 279°
2026-04-16 15:10 52.36664 -1.73458 8530 ft 251 kts 279°
2026-04-16 15:11 52.37056 -1.76227 8323 ft 250 kts 279°
2026-04-16 15:11 52.37449 -1.79021 8121 ft 253 kts 279°
2026-04-16 15:11 52.37844 -1.81841 7905 ft 255 kts 279°
2026-04-16 15:11 52.38238 -1.84661 7676 ft 253 kts 279°
2026-04-16 15:12 52.38627 -1.87444 7453 ft 249 kts 279°
2026-04-16 15:12 52.39309 -1.90033 7173 ft 253 kts 305°
2026-04-16 15:12 52.40668 -1.91925 6755 ft 265 kts 323°
2026-04-16 15:12 52.42276 -1.93478 6325 ft 271 kts 326°
2026-04-16 15:13 52.43927 -1.95011 5922 ft 272 kts 326°
2026-04-16 15:13 52.45535 -1.96494 5775 ft 264 kts 326°
2026-04-16 15:13 52.47115 -1.97943 5682 ft 255 kts 326°
2026-04-16 15:13 52.48639 -1.99337 5612 ft 247 kts 326°
2026-04-16 15:14 52.50122 -2.00689 5485 ft 241 kts 326°
2026-04-16 15:14 52.51583 -2.02015 5282 ft 239 kts 326°
2026-04-16 15:14 52.53029 -2.03334 4995 ft 237 kts 326°
2026-04-16 15:14 52.54480 -2.04626 4663 ft 238 kts 332°
2026-04-16 15:15 52.56108 -2.05208 4362 ft 245 kts 358°
2026-04-16 15:15 52.57778 -2.04622 4126 ft 248 kts 23°
2026-04-16 15:15 52.59176 -2.02970 3859 ft 249 kts 49°
2026-04-16 15:15 52.60174 -2.00702 3598 ft 249 kts 64°
2026-04-16 15:16 52.60669 -1.98014 3332 ft 245 kts 86°
2026-04-16 15:16 52.60789 -1.95226 3087 ft 245 kts 90°
2026-04-16 15:16 52.60607 -1.92528 2958 ft 230 kts 120°
2026-04-16 15:16 52.59591 -1.90705 2979 ft 214 kts 152°
2026-04-16 15:17 52.58359 -1.89324 2959 ft 214 kts 148°
2026-04-16 15:17 52.57168 -1.87930 2864 ft 208 kts 150°
2026-04-16 15:17 52.55991 -1.86608 2667 ft 203 kts 151°
2026-04-16 15:17 52.54840 -1.85326 2404 ft 197 kts 152°
2026-04-16 15:18 52.53712 -1.84073 2134 ft 195 kts 152°
2026-04-16 15:18 52.52619 -1.82858 1864 ft 189 kts 152°
2026-04-16 15:18 52.51552 -1.81668 1624 ft 182 kts 152°
2026-04-16 15:18 52.50535 -1.80537 1385 ft 169 kts 150°
2026-04-16 15:19 52.49614 -1.79510 1147 ft 152 kts 150°
2026-04-16 15:19 52.48778 -1.78575 985 ft 145 kts 152°
2026-04-16 15:19 52.47955 -1.77660 765 ft 140 kts 153°
2026-04-16 15:19 52.47164 -1.76770 566 ft 138 kts 150°
2026-04-16 15:20 52.46347 -1.75862 371 ft 142 kts 151°
2026-04-16 15:20 52.45588 -1.75033 323 ft 121 kts 149°
2026-04-16 15:20 52.45022 -1.74396 326 ft 77 kts 146°
2026-04-16 15:20 52.44711 -1.74051 324 ft 25 kts 146°
2026-04-16 15:21 52.44663 -1.73916 325 ft 13 kts 64°
2026-04-16 15:21 52.44709 -1.73800 323 ft 13 kts 57°
2026-04-16 15:21 52.44764 -1.73715 323 ft 10 kts 21°
2026-04-16 15:21 52.44829 -1.73683 322 ft 10 kts 21°
2026-04-16 15:22 52.44874 -1.73626 322 ft 7 kts 57°
2026-04-16 15:22 52.44895 -1.73558 320 ft 7 kts 72°
2026-04-16 15:22 52.44908 -1.73489 322 ft 6 kts 62°
2026-04-16 15:22 52.44933 -1.73430 322 ft 6 kts 54°
2026-04-16 15:23 52.44959 -1.73372 321 ft 6 kts 53°
2026-04-16 15:23 52.44983 -1.73314 322 ft 6 kts 57°
2026-04-16 15:23 52.45005 -1.73256 322 ft 6 kts 57°
2026-04-16 15:23 52.45017 -1.73234 322 ft 2 kts 36°
2026-04-16 15:24 52.45031 -1.73235 322 ft 3 kts 338°
2026-04-16 15:24 52.45054 -1.73260 322 ft 4 kts 326°
2026-04-16 15:24 52.45060 -1.73266 322 ft 1 kts 326°
2026-04-16 15:24 52.45060 -1.73267 322 ft 0 kts 326°
2026-04-16 15:28 52.45060 -1.73266 322 ft 0 kts 326°